This is the latest recevied weather packets stored in our database for station/object SA3PJN-WX. If no packets are shown the sender has not sent any weather packets the latest 10 day(s).
| Time | Temp. | Humidity | Pressure | Rain* | Wind** | Luminosity | Snow |
|---|---|---|---|---|---|---|---|
| 1777803461 | 6.11° C | 56% | 966.1 hPa | - | - | - | - |
| 1777803160 | 6.11° C | 57% | 966.2 hPa | - | - | - | - |
| 1777802860 | 6.11° C | 55% | 966.1 hPa | - | - | - | - |
| 1777802560 | 5.56° C | 57% | 966.1 hPa | - | - | - | - |
| 1777802260 | 5.56° C | 58% | 966.1 hPa | - | - | - | - |
| 1777801960 | 5° C | 53% | 966.2 hPa | - | - | - | - |
| 1777801660 | 5.56° C | 54% | 966.1 hPa | - | - | - | - |
| 1777801360 | 5.56° C | 50% | 966.1 hPa | - | - | - | - |
| 1777801060 | 5.56° C | 50% | 966.2 hPa | - | - | - | - |
| 1777800730 | 6.11° C | 55% | 966.2 hPa | - | - | - | - |
| 1777800400 | 5.56° C | 53% | 966.2 hPa | - | - | - | - |
| 1777800100 | 5.56° C | 57% | 966.2 hPa | - | - | - | - |
| 1777799800 | 5° C | 56% | 966.1 hPa | - | - | - | - |
| 1777799500 | 5° C | 54% | 966.1 hPa | - | - | - | - |
| 1777799200 | 5° C | 54% | 966.2 hPa | - | - | - | - |
| 1777798900 | 5° C | 51% | 966.1 hPa | - | - | - | - |
| 1777798600 | 5° C | 51% | 966.1 hPa | - | - | - | - |
| 1777798300 | 5° C | 50% | 966.3 hPa | - | - | - | - |
| 1777798000 | 4.44° C | 53% | 966.2 hPa | - | - | - | - |
| 1777797700 | 4.44° C | 56% | 966.2 hPa | - | - | - | - |
| 1777797400 | 4.44° C | 57% | 966.3 hPa | - | - | - | - |
| 1777797070 | 4.44° C | 55% | 966.3 hPa | - | - | - | - |
| 1777796770 | 5° C | 54% | 966.4 hPa | - | - | - | - |
| 1777796440 | 5.56° C | 50% | 966.5 hPa | - | - | - | - |
| 1777796110 | 6.11° C | 54% | 966.5 hPa | - | - | - | - |
* Rain since midnight (hover to see other rain measurements)
** Current wind speed in m/s (hover to see current wind gust speed)